| time (UTC) | temp F | wind direction | speed MPH | gust MPH | rain 1hr in | rain 24hr in | rain mn in | humidity % | barometer mb |
| 20260505034617 | 61 | 326 | 3.0 | 6.0 | 0.00 | 0.00 | 0.00 | 72 | 1019.3 |
| 20260505034217 | 62 | 4 | 5.0 | 9.0 | 0.00 | 0.00 | 0.00 | 71 | 1019.3 |
| 20260505033817 | 62 | 326 | 4.0 | 4.0 | 0.00 | 0.00 | 0.00 | 72 | 1019.3 |
| 20260505033417 | 62 | 317 | 3.0 | 6.0 | 0.00 | 0.00 | 0.00 | 72 | 1019.3 |
| 20260505033017 | 62 | 36 | 0.0 | 5.0 | 0.00 | 0.00 | 0.00 | 72 | 1019.2 |
| 20260505032617 | 62 | 315 | 0.0 | 0.0 | 0.00 | 0.00 | 0.00 | 72 | 1019.3 |
| 20260505032216 | 62 | 270 | 0.0 | 1.0 | 0.00 | 0.00 | 0.00 | 71 | 1019.1 |
| 20260505031416 | 62 | 225 | 0.0 | 0.0 | 0.00 | 0.00 | 0.00 | 70 | 1019.0 |
| 20260505031016 | 62 | 225 | 0.0 | 0.0 | 0.00 | 0.00 | 0.00 | 70 | 1019.0 |
| 20260505025815 | 63 | 225 | 0.0 | 0.0 | 0.00 | 0.00 | 0.00 | 70 | 1019.0 |
| 20260505025415 | 63 | 225 | 0.0 | 4.0 | 0.00 | 0.00 | 0.00 | 70 | 1018.9 |
| 20260505025014 | 63 | 225 | 0.0 | 0.0 | 0.00 | 0.00 | 0.00 | 69 | 1018.9 |
| 20260505024614 | 63 | 225 | 0.0 | 0.0 | 0.00 | 0.00 | 0.00 | 69 | 1018.8 |
| 20260505024214 | 63 | 270 | 0.0 | 0.0 | 0.00 | 0.00 | 0.00 | 69 | 1018.9 |
| 20260505023814 | 63 | 270 | 0.0 | 0.0 | 0.00 | 0.00 | 0.00 | 69 | 1018.9 |
| 20260505023414 | 63 | 270 | 0.0 | 0.0 | 0.00 | 0.00 | 0.00 | 69 | 1018.9 |
| 20260505023014 | 63 | 270 | 0.0 | 0.0 | 0.00 | 0.00 | 0.00 | 69 | 1019.0 |
| 20260505022614 | 63 | 270 | 0.0 | 0.0 | 0.00 | 0.00 | 0.00 | 69 | 1018.9 |
| 20260505022213 | 63 | 270 | 0.0 | 0.0 | 0.00 | 0.00 | 0.00 | 69 | 1018.9 |
| 20260505021813 | 63 | 270 | 0.0 | 0.0 | 0.00 | 0.00 | 0.00 | 68 | 1019.0 |
| 20260505021413 | 63 | 135 | 0.0 | 0.0 | 0.00 | 0.00 | 0.00 | 69 | 1019.1 |
| 20260505021013 | 63 | 135 | 0.0 | 0.0 | 0.00 | 0.00 | 0.00 | 68 | 1019.1 |
| 20260505020213 | 63 | 135 | 0.0 | 0.0 | 0.00 | 0.00 | 0.00 | 68 | 1019.1 |
| 20260505015813 | 63 | 135 | 0.0 | 0.0 | 0.00 | 0.00 | 0.00 | 68 | 1019.1 |
| 20260505015412 | 63 | 135 | 0.0 | 0.0 | 0.00 | 0.00 | 0.00 | 68 | 1019.1 |
| 20260505015012 | 63 | 135 | 0.0 | 0.0 | 0.00 | 0.00 | 0.00 | 68 | 1019.2 |
| 20260505014612 | 63 | 135 | 0.0 | 0.0 | 0.00 | 0.00 | 0.00 | 68 | 1019.1 |
| 20260505014212 | 64 | 135 | 0.0 | 0.0 | 0.00 | 0.00 | 0.00 | 68 | 1019.2 |
| 20260505013812 | 64 | 135 | 0.0 | 0.0 | 0.00 | 0.00 | 0.00 | 68 | 1019.2 |
| 20260505013412 | 64 | 180 | 0.0 | 0.0 | 0.00 | 0.00 | 0.00 | 68 | 1019.2 |
| 20260505013012 | 64 | 180 | 0.0 | 0.0 | 0.00 | 0.00 | 0.00 | 68 | 1019.1 |
| 20260505012611 | 64 | 180 | 0.0 | 0.0 | 0.00 | 0.00 | 0.00 | 68 | 1019.3 |
| 20260505012212 | 64 | 180 | 0.0 | 0.0 | 0.00 | 0.00 | 0.00 | 68 | 1019.3 |
| 20260505011811 | 64 | 180 | 0.0 | 0.0 | 0.00 | 0.00 | 0.00 | 68 | 1019.3 |
| 20260505011411 | 64 | 180 | 0.0 | 0.0 | 0.00 | 0.00 | 0.00 | 68 | 1019.3 |
| 20260505010611 | 64 | 180 | 0.0 | 0.0 | 0.00 | 0.00 | 0.00 | 68 | 1019.3 |
| 20260505010211 | 64 | 90 | 0.0 | 0.0 | 0.00 | 0.00 | 0.00 | 68 | 1019.3 |
| 20260505005810 | 64 | 90 | 0.0 | 0.0 | 0.00 | 0.00 | 0.00 | 68 | 1019.3 |
| 20260505005410 | 64 | 90 | 0.0 | 0.0 | 0.00 | 0.00 | 0.00 | 68 | 1019.4 |
| 20260505005010 | 64 | 135 | 0.0 | 0.0 | 0.00 | 0.00 | 0.00 | 68 | 1019.3 |
| 20260505003810 | 65 | 135 | 0.0 | 0.0 | 0.00 | 0.00 | 0.00 | 68 | 1019.4 |
| 20260505003410 | 65 | 135 | 0.0 | 0.0 | 0.00 | 0.00 | 0.00 | 67 | 1019.4 |
| 20260505002609 | 65 | 135 | 0.0 | 0.0 | 0.00 | 0.00 | 0.00 | 68 | 1019.5 |
| 20260505002209 | 65 | 157 | 0.0 | 0.0 | 0.00 | 0.00 | 0.00 | 67 | 1019.5 |
| 20260505001809 | 65 | 180 | 0.0 | 0.0 | 0.00 | 0.00 | 0.00 | 67 | 1019.5 |
| 20260505001409 | 65 | 229 | 0.0 | 0.0 | 0.00 | 0.00 | 0.00 | 67 | 1019.5 |
| 20260505000609 | 65 | 135 | 0.0 | 0.0 | 0.00 | 0.00 | 0.00 | 68 | 1019.5 |
| 20260505000208 | 65 | 135 | 0.0 | 0.0 | 0.00 | 0.00 | 0.00 | 67 | 1019.6 |
| 20260504235808 | 65 | 123 | 0.0 | 0.0 | 0.00 | 0.00 | 0.00 | 67 | 1019.5 |
| 20260504235408 | 65 | 90 | 0.0 | 0.0 | 0.00 | 0.00 | 0.00 | 67 | 1019.6 |
| 20260504235008 | 65 | 108 | 0.0 | 3.0 | 0.00 | 0.00 | 0.00 | 67 | 1019.6 |
| 20260504234209 | 65 | 135 | 0.0 | 2.0 | 0.00 | 0.00 | 0.00 | 68 | 1019.6 |
| 20260504233808 | 65 | 112 | 0.0 | 2.0 | 0.00 | 0.00 | 0.00 | 68 | 1019.7 |
| 20260504233408 | 65 | 90 | 0.0 | 0.0 | 0.00 | 0.00 | 0.00 | 67 | 1019.6 |
| 20260504233007 | 65 | 90 | 0.0 | 0.0 | 0.00 | 0.00 | 0.00 | 67 | 1019.7 |
| 20260504232607 | 65 | 130 | 0.0 | 0.0 | 0.00 | 0.00 | 0.00 | 67 | 1019.6 |
| 20260504232207 | 65 | 180 | 0.0 | 0.0 | 0.00 | 0.00 | 0.00 | 67 | 1019.6 |
| 20260504231407 | 65 | 90 | 0.0 | 0.0 | 0.00 | 0.00 | 0.00 | 67 | 1019.6 |
| 20260504231007 | 65 | 49 | 0.0 | 0.0 | 0.00 | 0.00 | 0.00 | 68 | 1019.6 |
| 20260504230606 | 66 | 36 | 0.0 | 2.0 | 0.00 | 0.00 | 0.00 | 67 | 1019.6 |
| 20260504230206 | 66 | 90 | 1.0 | 3.0 | 0.00 | 0.00 | 0.00 | 67 | 1019.6 |
| 20260504225406 | 66 | 121 | 0.0 | 3.0 | 0.00 | 0.00 | 0.00 | 67 | 1019.6 |
| 20260504225006 | 66 | 47 | 0.0 | 4.0 | 0.00 | 0.00 | 0.00 | 67 | 1019.6 |
| 20260504224606 | 66 | 45 | 0.0 | 4.0 | 0.00 | 0.00 | 0.00 | 67 | 1019.6 |
| 20260504224206 | 66 | 20 | 0.0 | 4.0 | 0.00 | 0.00 | 0.00 | 67 | 1019.7 |
| 20260504223806 | 66 | 135 | 0.0 | 5.0 | 0.00 | 0.00 | 0.00 | 67 | 1019.7 |
| 20260504223405 | 66 | 153 | 2.0 | 2.0 | 0.00 | 0.00 | 0.00 | 67 | 1019.7 |
| 20260504222605 | 67 | 76 | 3.0 | 6.0 | 0.00 | 0.00 | 0.00 | 67 | 1019.8 |
| 20260504222205 | 67 | 45 | 4.0 | 7.0 | 0.00 | 0.00 | 0.00 | 67 | 1019.7 |
| 20260504221805 | 67 | 65 | 3.0 | 5.0 | 0.00 | 0.00 | 0.00 | 66 | 1019.8 |
| 20260504220604 | 67 | 45 | 3.0 | 8.0 | 0.00 | 0.00 | 0.00 | 67 | 1019.8 |
| 20260504220204 | 67 | 58 | 7.0 | 8.0 | 0.00 | 0.00 | 0.00 | 67 | 1019.7 |
| 20260504215804 | 68 | 42 | 5.0 | 7.0 | 0.00 | 0.00 | 0.00 | 67 | 1019.8 |
| 20260504215404 | 68 | 42 | 5.0 | 7.0 | 0.00 | 0.00 | 0.00 | 67 | 1020.0 |
| 20260504215004 | 68 | 40 | 3.0 | 9.0 | 0.00 | 0.00 | 0.00 | 67 | 1020.0 |
| 20260504214604 | 68 | 47 | 7.0 | 7.0 | 0.00 | 0.00 | 0.00 | 67 | 1019.9 |
| 20260504214204 | 68 | 49 | 5.0 | 5.0 | 0.00 | 0.00 | 0.00 | 67 | 1019.8 |
| 20260504213803 | 68 | 49 | 0.0 | 8.0 | 0.00 | 0.00 | 0.00 | 67 | 1019.8 |
| 20260504213403 | 68 | 27 | 0.0 | 5.0 | 0.00 | 0.00 | 0.00 | 67 | 1019.9 |
| 20260504213003 | 68 | 49 | 5.0 | 5.0 | 0.00 | 0.00 | 0.00 | 68 | 1019.8 |
| 20260504212603 | 68 | 40 | 0.0 | 8.0 | 0.00 | 0.00 | 0.00 | 68 | 1019.8 |
| 20260504211803 | 68 | 265 | 0.0 | 0.0 | 0.00 | 0.00 | 0.00 | 67 | 1019.8 |
| 20260504211403 | 68 | 90 | 0.0 | 0.0 | 0.00 | 0.00 | 0.00 | 69 | 1019.8 |
| 20260504211003 | 68 | 45 | 0.0 | 5.0 | 0.00 | 0.00 | 0.00 | 70 | 1019.8 |
| 20260504210602 | 68 | 69 | 0.0 | 1.0 | 0.00 | 0.00 | 0.00 | 69 | 1019.8 |
| 20260504210202 | 68 | 92 | 0.0 | 0.0 | 0.00 | 0.00 | 0.00 | 69 | 1019.8 |
| 20260504205803 | 67 | 2 | 0.0 | 4.0 | 0.00 | 0.00 | 0.00 | 69 | 1019.8 |
| 20260504205402 | 67 | 45 | 0.0 | 0.0 | 0.00 | 0.00 | 0.00 | 71 | 1019.9 |
| 20260504204201 | 67 | 101 | 0.0 | 3.0 | 0.00 | 0.00 | 0.00 | 70 | 1019.9 |
| 20260504203801 | 67 | 0 | 0.0 | 0.0 | 0.00 | 0.00 | 0.00 | 70 | 1020.0 |
| 20260504203401 | 67 | 45 | 3.0 | 5.0 | 0.00 | 0.00 | 0.00 | 71 | 1020.0 |
| 20260504203001 | 67 | 56 | 0.0 | 0.0 | 0.00 | 0.00 | 0.00 | 71 | 1019.9 |
| 20260504202601 | 66 | 315 | 0.0 | 0.0 | 0.00 | 0.00 | 0.00 | 71 | 1020.0 |
| 20260504202201 | 66 | 209 | 0.0 | 0.0 | 0.00 | 0.00 | 0.00 | 71 | 1020.0 |
| 20260504201400 | 66 | 94 | 0.0 | 0.0 | 0.00 | 0.00 | 0.00 | 71 | 1019.9 |
| 20260504201000 | 66 | 229 | 0.0 | 0.0 | 0.00 | 0.00 | 0.00 | 71 | 1020.0 |
| 20260504200600 | 65 | 225 | 0.0 | 0.0 | 0.00 | 0.00 | 0.00 | 71 | 1020.0 |
| 20260504200200 | 65 | 135 | 0.0 | 2.0 | 0.00 | 0.00 | 0.00 | 71 | 1019.9 |
| 20260504195800 | 65 | 270 | 0.0 | 0.0 | 0.00 | 0.00 | 0.00 | 71 | 1020.0 |
| 20260504195400 | 65 | 0 | 0.0 | 0.0 | 0.00 | 0.00 | 0.00 | 71 | 1019.9 |
| 20260504195000 | 65 | 0 | 0.0 | 0.0 | 0.00 | 0.00 | 0.00 | 71 | 1019.9 |
| 20260504194559 | 65 | 217 | 0.0 | 1.0 | 0.00 | 0.00 | 0.00 | 71 | 1020.0 |
| 20260504194159 | 65 | 105 | 0.0 | 5.0 | 0.00 | 0.00 | 0.00 | 71 | 1020.0 |
| 20260504193359 | 65 | 270 | 0.0 | 0.0 | 0.00 | 0.00 | 0.00 | 72 | 1020.0 |
| 20260504192959 | 65 | 225 | 0.0 | 1.0 | 0.00 | 0.00 | 0.00 | 71 | 1020.0 |
| 20260504192559 | 65 | 0 | 0.0 | 1.0 | 0.00 | 0.00 | 0.00 | 71 | 1020.0 |
| 20260504192159 | 65 | 94 | 1.0 | 1.0 | 0.00 | 0.00 | 0.00 | 71 | 1020.1 |
| 20260504191759 | 65 | 45 | 0.0 | 0.0 | 0.00 | 0.00 | 0.00 | 71 | 1020.2 |
| 20260504191358 | 64 | 33 | 0.0 | 0.0 | 0.00 | 0.00 | 0.00 | 71 | 1020.2 |
| 20260504190958 | 64 | 4 | 0.0 | 0.0 | 0.00 | 0.00 | 0.00 | 71 | 1020.2 |
| 20260504190558 | 64 | 90 | 0.0 | 3.0 | 0.00 | 0.00 | 0.00 | 71 | 1020.2 |
| 20260504190158 | 64 | 312 | 0.0 | 0.0 | 0.00 | 0.00 | 0.00 | 72 | 1020.2 |
| 20260504185758 | 64 | 270 | 0.0 | 0.0 | 0.00 | 0.00 | 0.00 | 71 | 1020.3 |
| 20260504185358 | 64 | 90 | 0.0 | 0.0 | 0.00 | 0.00 | 0.00 | 72 | 1020.3 |
| 20260504184557 | 63 | 135 | 0.0 | 0.0 | 0.00 | 0.00 | 0.00 | 72 | 1020.2 |
| 20260504184157 | 63 | 90 | 0.0 | 0.0 | 0.00 | 0.00 | 0.00 | 71 | 1020.3 |
| 20260504183757 | 63 | 135 | 0.0 | 0.0 | 0.00 | 0.00 | 0.00 | 71 | 1020.2 |
| 20260504183357 | 63 | 112 | 0.0 | 0.0 | 0.00 | 0.00 | 0.00 | 71 | 1020.2 |
| 20260504182557 | 63 | 85 | 0.0 | 0.0 | 0.00 | 0.00 | 0.00 | 71 | 1020.3 |
| 20260504182157 | 63 | 135 | 0.0 | 0.0 | 0.00 | 0.00 | 0.00 | 72 | 1020.3 |
| 20260504181756 | 63 | 90 | 0.0 | 0.0 | 0.00 | 0.00 | 0.00 | 72 | 1020.3 |
| 20260504181356 | 63 | 135 | 0.0 | 0.0 | 0.00 | 0.00 | 0.00 | 72 | 1020.2 |
| 20260504180556 | 62 | 135 | 0.0 | 0.0 | 0.00 | 0.00 | 0.00 | 71 | 1020.2 |
| 20260504180156 | 62 | 45 | 0.0 | 3.0 | 0.00 | 0.00 | 0.00 | 72 | 1020.3 |
| 20260504175756 | 62 | 90 | 0.0 | 0.0 | 0.00 | 0.00 | 0.00 | 72 | 1020.2 |
| 20260504175356 | 62 | 90 | 0.0 | 0.0 | 0.00 | 0.00 | 0.00 | 72 | 1020.3 |
| 20260504174955 | 62 | 45 | 0.0 | 0.0 | 0.00 | 0.00 | 0.00 | 72 | 1020.3 |
| 20260504174555 | 62 | 0 | 0.0 | 0.0 | 0.00 | 0.00 | 0.00 | 72 | 1020.4 |
| 20260504174155 | 62 | 225 | 0.0 | 0.0 | 0.00 | 0.00 | 0.00 | 72 | 1020.3 |
| 20260504173755 | 62 | 270 | 0.0 | 0.0 | 0.00 | 0.00 | 0.00 | 72 | 1020.2 |
| 20260504173355 | 61 | 270 | 0.0 | 0.0 | 0.00 | 0.00 | 0.00 | 72 | 1020.1 |
| 20260504172955 | 61 | 225 | 0.0 | 0.0 | 0.00 | 0.00 | 0.00 | 72 | 1020.2 |
| 20260504172555 | 61 | 225 | 0.0 | 0.0 | 0.00 | 0.00 | 0.00 | 72 | 1020.2 |
| 20260504172154 | 61 | 45 | 0.0 | 0.0 | 0.00 | 0.00 | 0.00 | 72 | 1020.2 |
| 20260504171754 | 61 | 270 | 0.0 | 0.0 | 0.00 | 0.00 | 0.00 | 72 | 1020.2 |
| 20260504171354 | 61 | 135 | 0.0 | 0.0 | 0.00 | 0.00 | 0.00 | 73 | 1020.1 |
| 20260504170955 | 60 | 112 | 0.0 | 0.0 | 0.00 | 0.00 | 0.00 | 73 | 1020.0 |
| 20260504170554 | 60 | 249 | 0.0 | 0.0 | 0.00 | 0.00 | 0.00 | 74 | 1020.0 |
| 20260504170154 | 60 | 348 | 0.0 | 0.0 | 0.00 | 0.00 | 0.00 | 74 | 1020.0 |
| 20260504160152 | 58 | 180 | 0.0 | 0.0 | 0.00 | 0.00 | 0.00 | 75 | 1019.7 |
| 20260504150950 | 57 | 225 | 0.0 | 0.0 | 0.00 | 0.00 | 0.00 | 75 | 1019.7 |
| 20260504150550 | 57 | 225 | 0.0 | 0.0 | 0.00 | 0.00 | 0.00 | 75 | 1019.7 |
| 20260504150149 | 57 | 225 | 0.0 | 0.0 | 0.00 | 0.00 | 0.00 | 75 | 1019.8 |
| 20260504140548 | 57 | 328 | 0.0 | 0.0 | 0.00 | 0.00 | 0.00 | 76 | 1019.7 |
| 20260504140147 | 57 | 315 | 0.0 | 0.0 | 0.00 | 0.00 | 0.00 | 76 | 1019.7 |
| 20260504130547 | 57 | 0 | 0.0 | 0.0 | 0.00 | 0.00 | 0.00 | 75 | 1019.4 |
| 20260504130146 | 57 | 9 | 0.0 | 0.0 | 0.00 | 0.00 | 0.00 | 75 | 1019.4 |
| 20260504120144 | 57 | 270 | 0.0 | 0.0 | 0.00 | 0.00 | 0.00 | 75 | 1018.9 |
| 20260504110542 | 57 | 180 | 0.0 | 4.0 | 0.00 | 0.00 | 0.00 | 74 | 1019.1 |
| 20260504110142 | 57 | 232 | 3.0 | 4.0 | 0.00 | 0.00 | 0.00 | 74 | 1019.1 |
| 20260504100540 | 58 | 256 | 5.0 | 9.0 | 0.00 | 0.00 | 0.00 | 73 | 1018.9 |
| 20260504081736 | 58 | 353 | 5.0 | 5.0 | 0.00 | 0.00 | 0.00 | 73 | 1019.3 |
| 20260504081336 | 58 | 297 | 4.0 | 6.0 | 0.00 | 0.00 | 0.00 | 72 | 1019.3 |
| 20260504080936 | 58 | 317 | 3.0 | 6.0 | 0.00 | 0.00 | 0.00 | 73 | 1019.4 |
| 20260504080535 | 58 | 33 | 0.0 | 7.0 | 0.00 | 0.00 | 0.00 | 72 | 1019.3 |
| 20260504080135 | 58 | 315 | 4.0 | 8.0 | 0.00 | 0.00 | 0.00 | 72 | 1019.3 |
| 20260504070130 | 59 | 328 | 4.0 | 6.0 | 0.00 | 0.00 | 0.00 | 69 | 1018.9 |
| 20260504060128 | 60 | 301 | 1.0 | 4.0 | 0.00 | 0.00 | 0.00 | 68 | 1018.7 |
| 20260504050526 | 61 | 252 | 0.0 | 4.0 | 0.00 | 0.00 | 0.00 | 64 | 1018.4 |
| 20260504050126 | 62 | 234 | 3.0 | 6.0 | 0.00 | 0.00 | 0.00 | 65 | 1018.5 |
| 20260504045726 | 62 | 310 | 5.0 | 5.0 | 0.00 | 0.00 | 0.00 | 65 | 1018.4 |
| 20260504045326 | 62 | 256 | 3.0 | 5.0 | 0.00 | 0.00 | 0.00 | 64 | 1018.4 |
| 20260504044926 | 62 | 342 | 3.0 | 4.0 | 0.00 | 0.00 | 0.00 | 64 | 1018.3 |
| 20260504044525 | 62 | 256 | 0.0 | 6.0 | 0.00 | 0.00 | 0.00 | 64 | 1018.2 |
| 20260504044125 | 62 | 267 | 2.0 | 8.0 | 0.00 | 0.00 | 0.00 | 63 | 1018.3 |
| 20260504043725 | 62 | 211 | 3.0 | 5.0 | 0.00 | 0.00 | 0.00 | 63 | 1018.3 |
| 20260504043325 | 62 | 315 | 4.0 | 4.0 | 0.00 | 0.00 | 0.00 | 63 | 1018.2 |
| 20260504042925 | 63 | 225 | 1.0 | 4.0 | 0.00 | 0.00 | 0.00 | 63 | 1018.1 |
| 20260504042525 | 63 | 247 | 3.0 | 6.0 | 0.00 | 0.00 | 0.00 | 62 | 1018.2 |
| 20260504042124 | 63 | 195 | 3.0 | 6.0 | 0.00 | 0.00 | 0.00 | 62 | 1018.2 |
| 20260504041724 | 63 | 319 | 6.0 | 6.0 | 0.00 | 0.00 | 0.00 | 62 | 1018.0 |
| 20260504041323 | 63 | 232 | 3.0 | 7.0 | 0.00 | 0.00 | 0.00 | 62 | 1017.9 |
| 20260504040923 | 63 | 265 | 1.0 | 6.0 | 0.00 | 0.00 | 0.00 | 62 | 1017.9 |
| 20260504040523 | 64 | 267 | 5.0 | 6.0 | 0.00 | 0.00 | 0.00 | 61 | 1017.8 |
| 20260504040123 | 64 | 310 | 4.0 | 6.0 | 0.00 | 0.00 | 0.00 | 61 | 1017.7 |
| 20260504035723 | 64 | 273 | 1.0 | 6.0 | 0.00 | 0.00 | 0.00 | 61 | 1017.6 |
| 20260504035323 | 64 | 270 | 3.0 | 7.0 | 0.00 | 0.00 | 0.00 | 59 | 1017.6 |